Weather Roundup
Issued by NWS

Home | Current Version | Previous Version | Graphics & Text | Print | Product List | Glossary Off
Versions: 1 2 3 4 5 6 7 8 9 10 11 12 13 14 15 16 17 18 19 20 21 22 23 24 25 26 27 28 29 30 31 32 33 34 35 36 37 38 39 40 41 42 43 44 45 46 47 48 49 50

000
NZUS93 KARX 191759
HRRWXR

CURRENT HOURLY OBSERVATIONS ACROSS
MUCH OF THE UPPER MISSISSIPPI VALLEY
NATIONAL WEATHER SERVICE LA CROSSE WI
100 PM CDT SAT APR 19 2014


...SOUTHEAST MINNESOTA...


CITY           SKY/WX    TMP DP  RH WIND       PRES   REMARKS
ROCHESTER      SUNNY     60  39  45 S24G35    30.11F
ROCHESTER/MAYO FAIR      59  33  37 S16G32    30.11F
WINONA         SUNNY     63  32  31 S8G18     30.15F
AUSTIN         SUNNY     63  36  36 S16G25    30.09F
ALBERT LEA     PTSUNNY   63  39  42 S22G28    30.06F
DODGE CENTER   MOSUNNY   63  37  39 S24G32    30.09F
PRESTON        SUNNY     62  38  39 S23       30.13F
OWATONNA       PTSUNNY   61  41  48 S26G35    30.05F
FARIBAULT      CLOUDY    63  37  39 S17G24    30.05F
$$

...ELSEWHERE IN MINNESOTA...


CITY           SKY/WX    TMP DP  RH WIND       PRES   REMARKS
MINNEAPOLIS    PTSUNNY   57  39  51 S16       30.05F
INTNL FALLS    CLOUDY    41  32  70 S10G18    29.87F
DULUTH         CLOUDY    37  29  72 SE14      30.03F WCI  28
RED WING       PTSUNNY   59  36  41 S12G21    30.08F
REDWOOD FALLS  PTSUNNY   69  46  43 SW22G28   29.95F
MANKATO        PTSUNNY   66  43  42 S25G31    30.02F
WORTHINGTON    SUNNY     70  43  37 SW20G26   30.00F
FAIRMONT       PTSUNNY   72  41  33 S26       30.02F
$$

...SOUTHWEST WISCONSIN...


CITY           SKY/WX    TMP DP  RH WIND       PRES   REMARKS
LA CROSSE      SUNNY     61  32  33 S17       30.16F
PRAIRIE DU CHI MOSUNNY   60  28  29 SE8G21    30.22F
BOSCOBEL       MOSUNNY   62  30  29 SE8G20    30.23F
LONE ROCK      NOT AVBL
PLATTEVILLE    MOSUNNY   60  32  35 SE16G22   30.26F
FORT MC COY    NOT AVBL
VIROQUA        FAIR      58  33  39 SE17G24   30.21F
WIS DELLS      MOSUNNY   55  29  36 S14       30.26F
$$

...ELSEWHERE IN WISCONSIN...


CITY           SKY/WX    TMP DP  RH WIND       PRES   REMARKS
MILWAUKEE      PTSUNNY   44  33  65 SE14      30.36F
MADISON        PTSUNNY   59  34  39 SE18      30.29F
GREEN BAY      MOSUNNY   48  33  56 SE13      30.33F
EAU CLAIRE     NOT AVBL
BLACK RVR FLS  FAIR      62  29  29 S13G23    30.18F
MEDFORD        MOSUNNY   48  31  52 SE16G22   30.22F
WAUSAU         SUNNY     54  27  35 SE14G22   30.22F
WIS RAPIDS     MOSUNNY   57  28  33 SE17G24   30.25F
MARSHFIELD     MOSUNNY   54  31  41 SE18G26   30.21F
RICE LAKE      CLOUDY    53  30  41 SE24      30.13F
$$

...NORTHEAST IOWA...


CITY           SKY/WX    TMP DP  RH WIND       PRES   REMARKS
WATERLOO       PTSUNNY   66  37  34 S18G29    30.14F
DUBUQUE        SUNNY     61  33  35 S18G26    30.24F
DECORAH        MOSUNNY   61  34  36 S20G31    30.15F
MASON CITY     PTSUNNY   65  42  43 S25G33    30.08F
CHARLES CITY   PTSUNNY   61  39  44 S22G29    30.12F
OELWEIN        MOSUNNY  N/A N/A N/A S21G29    30.18F
$$

...ELSEWHERE IN IOWA...


CITY           SKY/WX    TMP DP  RH WIND       PRES   REMARKS
DES MOINES     CLOUDY    73  43  33 S13       30.11F
IOWA CITY      SUNNY     67  39  35 SE13      30.23F
FORT DODGE     MOSUNNY   75  46  35 S24G32    30.05F
MARSHALLTOWN   PTSUNNY   68  42  38 S18G29    30.13F
CEDAR RAPIDS   MOSUNNY   67  35  30 S15G23    30.19F
$$

...NORTHERN ILLINOIS...


CITY           SKY/WX    TMP DP  RH WIND       PRES   REMARKS
CHICAGO-OHARE  PTSUNNY   58  35  42 E7        30.33F
DUPAGE         MOSUNNY   62  32  32 SE9       30.31F
CHICAGO-MIDWAY PTSUNNY   57  39  51 E9        30.33F
MOLINE         SUNNY     69  31  24 S10G21    30.24F
ROCKFORD       PTSUNNY   63  34  33 S14       30.30F
STERLING       MOSUNNY   66  36  32 SE14G20   30.28F
PEORIA         SUNNY     69  34  27 VRB6G16   30.27F
$$

NOTE: "FAIR" INDICATES FEW OR NO CLOUDS BELOW 12,000 FEET WITH NO
SIGNIFICANT WEATHER AND/OR OBSTRUCTIONS TO VISIBILITY. WIND
SPEEDS ARE IN MILES-PER-HOUR.



USA.gov is the U.S. government's official web portal to all federal, state and local government web resources and services.